SCP
0 0 0 -0 -0 -0 -0 -0 -0 -0 0 -0 -0 0 0 0 0 0 0 0 0 0 0 0 0 0 0 0 0 0 0 0 0 0 0 0 0 0 0 0 -0 -0 0 0 -0 0 0 0 0 0 0 0 0 0
0 0 0 0 -0 -0 -0 -0 -0 0 -0 0 -0 0 -0 0 0 0 0 0 0 0 0 0 0 0 0 0 0 0 0 0 0 0 0 0 0 0 0 0 0 0 0 0 0 -0 0 0 0 0 0 0 -0 -0
0 0 0 -0 -0 0 -0 -0 -0 -0 -0 -0 -0 -0 -0 0 -0 0 0 0 0 0 0 0 0 0 0 0 0 0 0 0 0 0 0 0 0 0 0 0 0 0 0 0 0 0 0 0 -0 -0 -0 -0 -0 -0
0 0 0 -0 -0 0 -0 -0 -0 0 0 0 0 -0 0 0 -0 0 0 0 0 0 0 0 0 0 0 0 0 0 0 0 0 0 0 0 0 0 0 0 0 0 0 0 0 0 0 0 0 0 0 0 0 0
0 0 0 -0 -0 0 -0 -0 -0 -0 -0 -0 -0 -0 0 -0 -0 0 0 0 0 0 0 0 0 0 0 0 0 0 0 0 0 0 0 -0 0 0 -0 0 0 0 0 0 0 0 0 0 0 0 0 0 0 0
0 0 0 -0 -0 -0 -0 -0 -0 -0 -0 -0 -0 -0 -0 -0 0 0 0 0 0 0 0 0 0 0 0 0 0 0 0 0 0 0 0 0 0 0 0 0 0 -0 0 0 0 0 0 0 0 0 0 0 0 0
0 0 0 -0 -0 -0 -0 -0 -0 -0 -0 -0 -0 -0 -0 -0 0 0 0 0 0 0 0 0 0 0 0 0 0 0 0 0 0 0 0 0 -0 0 0 0 0 0 -0 -0 0 0 0 0 0 0 0 0 0 0
0 0 0 -0 0 -0 -0 -0 -0 -0 -0 0 -0 -0 -0 -0 0 0 0 -0 0 0 0 0 0 0 0 0 0 0 0 0 0 0 0 0 0 0 0 0 0 0 0 0 0 0 -0 0 0 0 0 0 0 0
0 0 -0 -0 0 -0 -0 -0 -0 -0 -0 -0 -0 -0 0 0 0 0 -0 0 0 0 0 0 0 0 0 0 0 0 0 0 0 0 0 0 0 0 0 0 0 0 0 0 0 0 0 0 0 0 0 0 0 0
0 -0 -0 -0 -0 -0 -0 -0 -0 -0 0 0 0 0 0 0 0 0 0 0 0 0 0 0 0 0 0 0 0 0 0 0 0 0 0 0 0 0 0 0 0 0 0 0 0 0 0 0 0 0 0 0 0 0
0 0 -0 -0 -0 -0 -0 -0 -0 -0 0 0 0 0 0 0 0 0 0 0 0 0 0 0 0 0 0 0 0 0 0 0 0 0 0 0 0 0 0 0 0 0 0 0 0 0 0 0 0 0 0 0 0 0
0 0 -0 -0 -0 0 -0 -0 -0 0 0 0 0 0 0 0 0 0 0 0 0 0 0 0 0 0 0 0 0 0 0 0 0 0 0 0 0 0 0 0 0 0 0 0 0 0 0 0 0 0 0 0 0 0
0 0 0 -0 -0 0 0 -0 -0 -0 0 0 0 0 0 0 0 0 0 0 0 0 0 0 0 0 0 0 0 0 0 0 0 0 0 0 0 0 0 0 0 0 0 0 0 0 0 0 0 0 0 0 0 0
0 0 0 -0 0 0 0 0 0 0 0 0 0 0 0 0 0 0 0 0 0 0 0 0 0 0 0 0 0 0 0 0 0 0 0 0 0 0 0 0 0 0 0 0 0 0 0 0 0 0 0 0 0 0
0 0 0 0 -0 0 0 0 0 0 0 0 0 0 0 0 0 0 0 0 0 0 0 0 0 0 0 0 0 0 0 0 0 0 0 0 0 0 0 0 0 0 0 0 0 0 0 0 0 0 0 0 0 0
0 0 0 0 -0 0 0 0 -0 0 0 0 0 0 0 0 0 0 0 0 0 0 0 0 0 0 0 0 0 -0 -0 -0 0 0 0 0 0 -0 -0 -0 -0 0 0 0 0 0 0 0 0 0 0 0 0 0
0 0 0 0 0 0 0 0 0 0 0 0 0 0 0 0 0 0 0 0 0 0 0 0 0 0 0 0 0 0 -0 0 0 0 0 -0 -0 -0 -0 -0 -0 0 0 0 0 0 0 0 0 0 0 0 0 0
0 0 -0 0 0 0 0 0 0 0 0 0 0 0 0 0 0 0 0 0 0 0 0 0 0 0 0 0 0 0 0 0 -0 -0 -0 -0 -0 -0 -0 -0 0 0 0 0 0 0 0 0 0 0 0 0 0 0
0 0 0 0 0 0 0 0 0 0 0 0 0 0 0 0 0 0 0 0 0 0 0 0 0 0 0 0 0 0 0 -0 -0 0 0 0 -0 0 0 0 0 0 0 0 0 0 0 0 0 0 0 0 0 0
0 0 0 0 0 0 0 0 0 0 0 0 0 0 0 0 0 0 0 0 0 0 0 0 0 0 0 0 0 0 0 0 -0 -0 -0 -0 0 0 0 0 0 0 0 0 0 0 0 0 0 0 0 0 0 0
0 0 0 0 0 0 0 0 0 0 0 0 0 0 0 0 0 0 0 0 0 0 0 0 0 0 0 0 0 0 0 0 -0 -0 -0 -0 0 0 -0 -0 0 0 0 0 0 0 0 0 0 0 0 0 0 0
0 0 0 0 0 0 0 0 0 0 0 0 0 0 0 0 0 0 0 0 0 0 0 0 0 0 0 0 0 0 -0 -0 -0 0 0 0 -0 -0 -0 -0 0 0 0 0 0 0 0 0 0 0 0 0 0 0
0 0 0 0 0 0 0 0 0 0 0 0 0 0 0 0 0 0 0 0 0 0 0 0 0 0 0 0 0 0 -0 -0 -0 -0 0 0 0 -0 -0 -0 -0 0 0 0 0 0 0 0 0 0 0 0 0 0
0 0 0 0 0 0 0 0 0 0 0 0 0 0 0 0 0 0 0 0 0 0 0 0 0 0 0 0 0 0 0 -0 -0 -0 0 0 -0 -0 -0 -0 -0 0 0 0 0 0 0 0 0 0 0 0 0 0
0 0 0 0 0 0 0 0 0 0 0 0 0 0 0 0 0 0 0 0 0 0 0 0 0 0 0 0 0 0 -0 -0 -0 -0 0 -0 -0 -0 -0 -0 -0 0 0 0 0 0 0 0 0 0 0 0 0 0
0 0 0 0 0 0 0 0 0 0 0 0 0 0 0 0 0 0 0 0 0 0 0 0 0 0 0 0 0 0 0 0 -0 -0 -0 -0 -0 -0 -0 0 0 0 0 0 0 0 0 0 0 0 0 0 0 0
0 0 0 0 0 0 0 0 0 0 0 0 0 0 0 0 0 0 0 0 0 0 0 0 0 0 0 0 0 0 0 0 -0 -0 -0 -0 0 0 0 0 0 0 0 0 0 0 0 0 0 0 0 0 0 0
-0 0 0 0 0 0 0 0 0 0 0 0 0 0 0 0 0 0 0 0 0 0 0 0 0 0 0 0 0 0 0 0 0 -0 -0 -0 0 0 0 0 0 0 0 0 0 0 0 0 0 0 0 0 0 0
0 0 0 0 0 0 0 0 0 0 0 0 0 0 0 0 0 0 0 0 0 0 0 0 0 0 0 0 0 0 0 0 0 0 0 0 0 0 0 0 0 0 0 0 0 0 0 0 0 0 0 0 0 0
0 0 0 0 0 0 0 0 0 0 0 0 0 0 0 0 0 0 0 0 0 0 0 0 0 0 0 0 0 0 0 0 0 0 0 0 0 0 0 0 0 0 0 0 0 0 0 0 0 0 0 0 0 0
0 0 0 0 0 0 0 0 0 0 0 0 0 0 0 0 0 0 0 0 0 0 0 0 0 0 0 0 0 0 0 0 0 0 0 0 0 0 0 0 0 0 0 0 0 0 0 0 0 0 0 0 0 0
0 0 0 0 0 0 0 0 0 0 0 0 0 0 0 0 0 0 0 0 0 0 0 0 0 0 0 0 0 0 0 0 0 0 0 0 0 0 0 0 0 0 0 0 0 0 0 0 0 0 0 0 0 0
0 0 0 0 0 0 0 0 0 0 0 0 0 0 0 0 0 0 0 0 0 0 0 0 0 0 0 0 0 0 0 0 0 0 0 0 0 0 0 0 0 0 0 0 0 0 0 0 0 0 0 0 0 0
Wind_Speed_500mb
81 87 85 84 80 84 85 86 90 93 95 94 80 61 54 62 74 79 81 72 73 23 23 45 52 23 21 33 9 12 10 3 5 10 7 6 9 15 10 12 15 17 16 12 11 20 31 16 1 14 14 32 36 22
81 88 87 84 81 86 88 90 98 100 98 81 63 59 58 62 65 81 60 75 78 46 17 53 47 58 54 47 39 40 16 11 17 6 3 4 1 1 12 20 9 15 14 12 20 13 11 29 36 56 65 62 51 52
81 88 87 84 84 87 89 99 101 99 73 56 52 58 59 68 70 88 75 62 68 36 27 29 49 60 61 59 32 21 19 21 12 12 8 7 7 13 9 19 18 10 23 20 17 15 15 51 58 51 49 56 64 74
78 87 88 81 86 89 95 101 93 55 40 46 52 52 49 28 81 82 76 73 67 22 8 15 48 59 56 57 54 55 42 28 40 39 10 8 10 16 26 22 25 29 18 30 25 28 29 63 72 68 77 87 88 75
78 85 86 81 85 89 97 102 72 51 51 51 49 50 41 38 61 74 81 60 85 43 7 8 22 51 54 46 60 56 58 51 28 10 10 20 15 12 20 17 27 21 39 23 17 43 42 65 76 81 85 78 78 79
77 83 84 81 84 90 94 87 66 49 53 48 56 59 36 62 68 67 14 54 68 57 8 2 7 21 36 38 48 61 63 45 35 15 9 14 22 26 11 13 28 64 70 72 33 70 67 84 57 49 64 77 81 84
78 82 81 77 80 87 90 83 63 42 43 38 48 53 20 79 79 59 19 25 73 66 14 2 5 7 25 27 36 38 42 34 33 15 7 7 5 19 7 14 11 52 70 83 61 40 29 41 34 44 49 73 61 40
75 77 77 73 78 84 90 84 49 32 27 19 24 42 61 69 60 30 10 35 84 40 10 6 6 3 20 15 11 25 24 34 21 10 7 3 3 1 7 7 16 28 30 16 17 23 39 42 28 26 26 27 24 29
73 71 74 73 76 78 84 83 35 31 18 8 2 9 25 28 15 23 56 68 51 15 8 6 10 8 26 14 14 14 13 4 6 5 5 9 4 9 3 6 10 16 11 12 13 22 29 36 32 28 16 19 24 35
68 70 70 70 71 73 76 77 43 28 24 14 10 2 4 13 35 57 36 11 7 9 6 3 10 4 16 9 1 4 6 6 6 8 12 6 9 3 25 15 8 4 9 12 16 16 23 27 28 31 27 29 36 35
65 67 66 68 68 69 73 67 70 27 20 18 9 4 17 44 24 5 5 4 1 2 12 12 25 10 21 7 6 14 5 2 5 8 10 4 8 6 14 6 6 8 11 8 12 15 17 16 16 18 20 20 23 30
61 62 65 64 63 64 65 66 64 55 16 14 14 26 34 13 8 7 6 1 5 11 8 9 11 13 18 12 5 9 7 5 10 5 7 6 5 9 23 25 22 19 23 23 24 29 28 28 25 30 34 32 28 26
56 60 62 62 62 63 55 65 59 57 24 20 18 14 7 4 7 14 14 5 2 4 9 8 6 13 11 15 4 6 7 8 3 3 8 7 10 33 36 36 33 29 31 30 32 36 41 43 40 42 44 43 44 43
56 58 61 62 62 59 54 57 60 53 15 10 9 10 9 5 10 8 9 8 5 6 8 9 3 5 5 5 4 6 2 5 4 1 12 3 18 39 41 42 44 44 42 38 38 39 43 47 50 50 52 50 53 53
55 61 62 62 60 51 53 57 59 46 13 9 4 9 8 3 8 7 12 12 7 12 9 7 5 4 1 5 1 6 5 8 12 10 4 5 28 28 35 37 42 47 47 47 41 41 42 45 50 54 48 45 52 50
56 62 65 49 47 55 54 63 55 22 10 10 5 7 4 6 5 4 6 6 10 17 12 4 4 4 5 7 5 12 11 13 5 2 8 24 29 35 35 41 46 51 50 52 48 45 45 44 44 49 47 45 46 43
55 60 51 53 57 54 53 48 16 12 9 12 3 10 11 12 5 8 8 8 11 11 5 4 7 13 3 4 4 5 6 2 6 21 27 35 41 43 43 51 55 55 51 48 47 45 45 40 41 45 50 41 38 37
55 57 61 50 49 50 44 15 11 6 6 6 6 8 14 13 12 12 10 12 8 6 5 4 2 4 8 7 5 2 6 19 20 18 34 38 34 38 49 56 56 52 50 46 41 41 38 35 36 38 35 31 30 32
46 51 51 45 33 26 11 7 8 6 4 10 21 20 17 21 20 15 15 16 15 12 11 6 4 5 3 2 1 4 12 18 22 41 43 29 37 44 52 49 48 45 40 38 36 34 32 25 25 25 29 33 35 37
52 51 54 21 23 10 10 6 2 9 6 11 15 15 15 16 17 21 20 16 12 8 11 7 3 1 1 1 7 15 19 21 29 43 42 41 43 49 50 46 44 39 34 29 26 24 20 16 18 22 28 32 33 40
59 38 23 17 15 23 7 2 5 7 15 12 23 10 14 12 11 12 14 14 16 8 4 5 5 4 8 7 9 13 15 17 20 24 41 56 52 50 48 41 34 28 27 24 21 14 14 11 11 18 24 29 34 36
30 25 11 14 11 10 2 3 8 9 9 14 12 10 8 5 5 8 9 20 8 6 5 4 5 4 3 4 5 11 15 14 16 21 26 32 43 46 47 41 34 25 19 18 15 11 9 8 15 19 22 27 30 34
13 4 5 7 7 1 2 4 3 4 7 3 7 7 5 4 6 8 6 7 6 11 9 8 8 4 4 4 8 13 14 14 16 21 29 31 30 30 34 34 25 22 16 8 8 7 6 11 17 20 26 33 38 44
5 1 10 9 15 3 4 5 5 5 7 5 6 8 3 4 6 7 6 2 4 12 8 7 9 3 3 4 8 11 13 14 17 20 28 33 31 26 23 25 21 16 13 7 3 4 8 13 19 27 34 42 48 55
2 17 14 11 16 8 9 6 6 5 6 4 6 5 3 5 5 6 3 2 7 13 13 9 9 9 9 7 9 11 16 17 18 22 29 30 28 22 19 16 21 17 7 2 7 10 16 22 27 33 39 46 55 63
13 13 10 11 8 8 7 5 8 6 4 6 6 1 3 5 7 3 3 9 7 10 13 11 9 7 8 13 12 9 13 13 12 16 23 28 31 31 35 43 39 27 13 8 13 18 22 27 33 39 45 50 57 65
10 9 12 14 7 7 5 5 6 7 8 6 3 3 4 8 4 4 4 9 10 10 10 10 9 8 8 7 7 10 11 12 12 16 23 27 29 33 40 45 45 40 23 8 18 28 37 41 47 54 63 67 69 75
8 15 9 17 10 19 6 6 9 9 5 7 1 9 6 5 4 2 4 10 9 7 7 7 7 5 5 5 5 5 7 7 7 10 14 22 23 26 31 35 35 36 40 25 20 28 40 51 60 67 71 80 87 89
9 22 8 8 7 10 9 9 6 8 11 6 4 5 5 8 7 8 7 9 10 7 5 6 7 9 8 7 6 6 8 8 8 9 12 17 17 26 29 31 31 35 40 48 48 47 54 64 73 80 83 84 84 84
11 21 5 6 8 9 11 13 12 19 21 19 22 34 34 29 27 20 14 10 9 10 11 10 12 12 14 13 13 11 11 10 9 10 11 17 20 21 24 25 27 31 33 36 45 52 57 64 69 73 76 77 76 75
16 11 7 10 6 7 17 28 34 36 38 42 39 32 20 14 24 44 35 23 16 14 12 13 13 13 12 12 13 14 16 15 15 15 16 17 17 17 21 23 26 28 32 33 35 41 49 55 58 60 63 64 63 63
14 12 4 6 2 4 5 6 8 9 9 10 12 9 8 9 10 18 39 25 15 15 16 15 16 18 19 19 17 17 16 15 13 16 15 15 15 16 18 20 23 25 28 32 37 39 39 44 49 48 49 51 50 49
9 14 11 6 3 4 9 6 6 5 11 8 12 11 11 8 8 19 23 27 22 17 14 14 14 15 15 15 15 14 12 10 9 13 15 13 13 14 15 17 20 21 23 26 30 33 36 37 40 42 41 40 39 38
Wind_Direction_500mb
324 326 328 320 317 317 315 314 312 309 306 303 303 296 263 262 253 218 223 220 213 203 203 207 216 195 176 184 157 189 101 254 56 179 202 185 196 205 178 216 181 176 179 198 209 227 231 205 309 200 218 285 293 294
322 326 327 321 319 319 319 316 315 310 306 298 294 285 286 279 232 205 208 223 205 208 230 221 228 235 230 232 200 182 183 166 179 133 192 132 112 43 194 227 214 224 198 208 213 227 175 224 213 243 251 261 268 270
323 325 327 323 321 322 320 320 318 321 303 291 288 292 288 273 228 201 201 202 198 193 226 233 225 221 222 223 221 204 226 207 205 209 161 203 193 179 202 223 232 246 228 230 251 243 220 225 237 235 239 256 264 263
323 325 327 322 323 323 323 324 335 327 320 310 301 298 292 295 183 192 196 182 189 176 193 244 229 227 229 229 229 221 231 227 233 233 215 226 220 198 230 228 219 224 204 222 233 232 245 243 236 236 249 252 256 256
323 325 327 323 324 326 326 329 333 322 317 315 310 304 275 214 188 193 195 191 200 186 173 193 198 217 217 224 223 229 228 222 224 223 221 238 240 225 227 228 234 210 220 214 218 221 221 237 235 239 239 234 239 245
322 326 326 324 326 327 329 333 325 318 316 320 321 311 266 203 183 188 119 195 203 197 153 90 219 205 212 216 217 226 233 221 216 220 228 228 259 203 217 217 232 227 226 226 225 229 230 238 245 254 229 233 229 224
323 326 326 324 326 329 332 339 327 312 316 328 328 330 227 180 175 170 182 206 190 191 162 40 318 194 205 203 215 222 225 217 221 229 235 223 248 216 177 214 208 213 219 226 230 217 212 238 260 262 244 230 221 224
324 324 325 324 326 330 335 345 327 323 323 332 349 63 115 146 156 155 157 178 175 172 152 118 255 6 178 187 194 197 197 206 217 210 248 210 287 6 264 223 231 218 214 206 196 225 230 225 221 266 238 218 222 228
323 322 325 324 325 330 337 354 334 329 326 301 143 84 91 101 88 128 145 151 161 163 157 152 148 212 180 190 177 178 167 183 182 201 220 152 315 230 182 199 202 239 268 246 255 259 254 235 233 230 235 258 249 250
322 322 322 322 323 328 334 347 350 317 303 266 241 299 52 106 125 144 144 147 133 173 132 170 167 169 162 156 223 106 185 201 179 233 134 176 245 197 52 79 133 211 252 271 261 265 263 251 261 264 250 243 238 237
319 320 320 321 322 324 331 337 347 328 305 243 198 131 151 150 147 157 97 107 160 191 196 206 189 147 191 148 179 205 192 174 147 244 159 231 264 104 3 328 305 290 283 268 260 254 260 266 278 280 271 264 255 250
314 317 319 318 319 321 325 331 338 346 302 257 197 143 162 174 164 132 173 353 169 216 194 172 204 166 168 165 143 190 181 94 234 162 108 235 229 20 356 351 346 325 303 283 271 271 265 263 258 259 260 263 267 270
310 311 317 317 313 317 318 328 326 324 284 231 204 165 185 191 168 171 186 233 220 183 189 173 156 143 149 190 179 200 148 207 100 170 217 230 338 349 351 343 332 332 315 300 288 276 269 267 260 261 261 261 269 266
303 306 309 315 307 312 312 322 322 320 272 251 210 161 175 193 231 181 181 173 151 163 138 121 108 143 159 141 164 181 158 78 84 223 233 346 343 344 342 339 333 321 314 311 303 291 279 273 267 258 258 260 260 259
302 303 305 305 310 308 311 317 311 314 242 242 224 207 198 151 71 110 114 123 128 140 136 125 112 113 119 145 154 107 63 240 206 223 136 338 331 326 318 322 321 322 321 312 303 292 281 276 272 266 258 257 255 256
301 300 303 307 305 309 312 309 313 276 229 177 96 88 48 62 304 120 128 111 131 147 132 112 137 129 233 140 106 210 148 219 224 155 287 320 321 322 317 319 322 323 315 309 304 297 289 280 275 271 266 257 250 247
303 298 306 303 308 306 303 307 281 232 206 128 168 114 118 77 133 125 136 159 148 151 151 131 132 199 112 91 239 189 225 12 351 322 324 325 325 322 322 319 316 316 312 306 299 294 290 282 274 269 265 256 250 246
294 300 307 310 313 309 300 237 239 215 71 100 124 114 91 84 105 114 114 125 131 116 117 142 123 130 192 189 200 85 5 318 316 311 321 331 327 322 319 316 313 312 308 304 299 296 291 281 269 269 261 250 244 237
299 302 302 300 303 300 278 247 227 138 113 99 109 108 105 101 83 96 104 106 102 104 105 54 113 185 174 60 161 318 330 341 315 322 329 341 336 327 325 320 314 312 306 303 299 294 287 273 268 259 247 240 227 224
290 293 297 292 257 243 256 264 296 113 140 138 117 102 92 93 100 81 91 97 91 61 49 49 103 130 23 323 308 302 318 324 326 328 335 339 344 337 334 327 320 317 311 309 302 293 283 265 258 238 226 224 219 214
305 300 296 250 222 220 271 281 57 89 121 83 125 81 84 90 62 49 46 44 61 38 74 52 87 347 309 303 301 313 322 319 328 317 318 322 340 336 336 336 328 318 315 317 315 294 265 243 203 210 213 212 210 208
297 278 275 203 215 208 164 59 119 105 81 119 113 93 81 76 53 44 62 53 60 39 19 12 6 6 346 298 308 326 335 335 335 332 336 330 328 336 341 338 338 332 323 323 318 303 274 221 194 197 195 191 189 186
298 251 202 191 185 112 54 99 112 62 109 139 103 85 51 76 74 80 76 62 84 21 353 347 344 321 319 357 3 345 340 336 342 340 341 338 329 334 341 341 333 334 328 323 308 287 247 205 195 187 176 172 171 168
343 16 35 34 14 58 357 18 55 74 95 66 73 100 87 102 118 53 84 327 59 12 6 4 358 292 278 328 358 358 1 351 350 347 347 350 352 353 337 347 350 340 338 350 3 229 197 184 178 172 164 161 161 159
133 14 18 8 16 1 26 11 14 57 89 74 104 101 131 150 88 62 65 319 7 22 19 14 351 9 12 359 357 352 352 349 349 357 4 7 10 14 29 26 24 16 13 138 149 170 174 175 171 167 162 160 155 153
67 11 32 354 2 19 354 9 13 24 96 79 60 83 89 86 68 55 269 345 354 1 4 5 5 5 356 353 354 3 5 4 353 5 19 26 25 21 27 34 36 42 50 100 138 156 159 161 161 157 151 153 154 148
53 355 354 20 346 336 16 18 13 36 54 63 22 51 74 73 81 271 326 345 351 348 354 355 349 345 342 351 1 8 31 46 51 45 42 38 32 28 34 36 33 35 37 93 145 151 147 150 151 150 145 144 145 147
63 28 24 335 42 24 26 24 25 25 23 354 296 46 74 69 179 312 344 348 348 351 355 5 3 359 354 12 26 47 71 65 42 28 48 54 42 42 50 56 53 59 67 67 115 140 144 146 145 140 137 136 135 135
30 352 353 27 53 50 37 19 9 349 341 348 85 85 99 76 63 63 41 31 27 27 45 67 55 52 53 58 70 49 28 24 41 48 55 62 59 52 54 61 66 72 82 95 99 108 122 127 129 132 132 131 130 131
347 1 20 50 48 36 14 20 32 45 65 79 97 104 92 85 70 57 52 58 65 77 89 81 75 75 70 67 67 70 64 62 67 60 60 66 61 57 57 60 71 78 85 97 108 114 119 123 125 125 126 126 127 128
346 356 62 48 72 35 70 83 81 79 81 85 95 94 102 110 64 41 41 46 63 76 86 86 85 76 70 73 70 71 78 85 85 78 78 76 78 76 78 80 83 88 94 101 108 112 116 119 120 121 123 123 124 126
15 29 91 95 102 55 62 48 58 66 54 55 46 59 77 77 64 33 22 35 61 77 77 84 92 83 72 67 76 83 89 89 88 84 80 82 86 87 87 92 97 101 106 111 113 114 118 119 120 121 120 121 123 126
33 39 49 83 83 57 22 34 61 84 54 53 43 44 51 68 80 20 17 26 43 56 78 92 89 78 67 67 77 81 88 93 92 95 85 92 99 99 98 101 105 108 109 112 115 117 118 120 121 122 124 127 128 127
Wind_Speed_850mb
81 87 85 84 80 84 85 86 90 93 95 94 80 61 54 62 74 79 81 72 73 23 23 45 52 23 21 33 9 12 10 3 5 10 7 6 9 15 10 12 15 17 16 12 11 20 31 16 1 14 14 32 36 22
81 88 87 84 81 86 88 90 98 100 98 81 63 59 58 62 65 81 60 75 78 46 17 53 47 58 54 47 39 40 16 11 17 6 3 4 1 1 12 20 9 15 14 12 20 13 11 29 36 56 65 62 51 52
81 88 87 84 84 87 89 99 101 99 73 56 52 58 59 68 70 88 75 62 68 36 27 29 49 60 61 59 32 21 19 21 12 12 8 7 7 13 9 19 18 10 23 20 17 15 15 51 58 51 49 56 64 74
78 87 88 81 86 89 95 101 93 55 40 46 52 52 49 28 81 82 76 73 67 22 8 15 48 59 56 57 54 55 42 28 40 39 10 8 10 16 26 22 25 29 18 30 25 28 29 63 72 68 77 87 88 75
78 85 86 81 85 89 97 102 72 51 51 51 49 50 41 38 61 74 81 60 85 43 7 8 22 51 54 46 60 56 58 51 28 10 10 20 15 12 20 17 27 21 39 23 17 43 42 65 76 81 85 78 78 79
77 83 84 81 84 90 94 87 66 49 53 48 56 59 36 62 68 67 14 54 68 57 8 2 7 21 36 38 48 61 63 45 35 15 9 14 22 26 11 13 28 64 70 72 33 70 67 84 57 49 64 77 81 84
78 82 81 77 80 87 90 83 63 42 43 38 48 53 20 79 79 59 19 25 73 66 14 2 5 7 25 27 36 38 42 34 33 15 7 7 5 19 7 14 11 52 70 83 61 40 29 41 34 44 49 73 61 40
75 77 77 73 78 84 90 84 49 32 27 19 24 42 61 69 60 30 10 35 84 40 10 6 6 3 20 15 11 25 24 34 21 10 7 3 3 1 7 7 16 28 30 16 17 23 39 42 28 26 26 27 24 29
73 71 74 73 76 78 84 83 35 31 18 8 2 9 25 28 15 23 56 68 51 15 8 6 10 8 26 14 14 14 13 4 6 5 5 9 4 9 3 6 10 16 11 12 13 22 29 36 32 28 16 19 24 35
68 70 70 70 71 73 76 77 43 28 24 14 10 2 4 13 35 57 36 11 7 9 6 3 10 4 16 9 1 4 6 6 6 8 12 6 9 3 25 15 8 4 9 12 16 16 23 27 28 31 27 29 36 35
65 67 66 68 68 69 73 67 70 27 20 18 9 4 17 44 24 5 5 4 1 2 12 12 25 10 21 7 6 14 5 2 5 8 10 4 8 6 14 6 6 8 11 8 12 15 17 16 16 18 20 20 23 30
61 62 65 64 63 64 65 66 64 55 16 14 14 26 34 13 8 7 6 1 5 11 8 9 11 13 18 12 5 9 7 5 10 5 7 6 5 9 23 25 22 19 23 23 24 29 28 28 25 30 34 32 28 26
56 60 62 62 62 63 55 65 59 57 24 20 18 14 7 4 7 14 14 5 2 4 9 8 6 13 11 15 4 6 7 8 3 3 8 7 10 33 36 36 33 29 31 30 32 36 41 43 40 42 44 43 44 43
56 58 61 62 62 59 54 57 60 53 15 10 9 10 9 5 10 8 9 8 5 6 8 9 3 5 5 5 4 6 2 5 4 1 12 3 18 39 41 42 44 44 42 38 38 39 43 47 50 50 52 50 53 53
55 61 62 62 60 51 53 57 59 46 13 9 4 9 8 3 8 7 12 12 7 12 9 7 5 4 1 5 1 6 5 8 12 10 4 5 28 28 35 37 42 47 47 47 41 41 42 45 50 54 48 45 52 50
56 62 65 49 47 55 54 63 55 22 10 10 5 7 4 6 5 4 6 6 10 17 12 4 4 4 5 7 5 12 11 13 5 2 8 24 29 35 35 41 46 51 50 52 48 45 45 44 44 49 47 45 46 43
55 60 51 53 57 54 53 48 16 12 9 12 3 10 11 12 5 8 8 8 11 11 5 4 7 13 3 4 4 5 6 2 6 21 27 35 41 43 43 51 55 55 51 48 47 45 45 40 41 45 50 41 38 37
55 57 61 50 49 50 44 15 11 6 6 6 6 8 14 13 12 12 10 12 8 6 5 4 2 4 8 7 5 2 6 19 20 18 34 38 34 38 49 56 56 52 50 46 41 41 38 35 36 38 35 31 30 32
46 51 51 45 33 26 11 7 8 6 4 10 21 20 17 21 20 15 15 16 15 12 11 6 4 5 3 2 1 4 12 18 22 41 43 29 37 44 52 49 48 45 40 38 36 34 32 25 25 25 29 33 35 37
52 51 54 21 23 10 10 6 2 9 6 11 15 15 15 16 17 21 20 16 12 8 11 7 3 1 1 1 7 15 19 21 29 43 42 41 43 49 50 46 44 39 34 29 26 24 20 16 18 22 28 32 33 40
59 38 23 17 15 23 7 2 5 7 15 12 23 10 14 12 11 12 14 14 16 8 4 5 5 4 8 7 9 13 15 17 20 24 41 56 52 50 48 41 34 28 27 24 21 14 14 11 11 18 24 29 34 36
30 25 11 14 11 10 2 3 8 9 9 14 12 10 8 5 5 8 9 20 8 6 5 4 5 4 3 4 5 11 15 14 16 21 26 32 43 46 47 41 34 25 19 18 15 11 9 8 15 19 22 27 30 34
13 4 5 7 7 1 2 4 3 4 7 3 7 7 5 4 6 8 6 7 6 11 9 8 8 4 4 4 8 13 14 14 16 21 29 31 30 30 34 34 25 22 16 8 8 7 6 11 17 20 26 33 38 44
5 1 10 9 15 3 4 5 5 5 7 5 6 8 3 4 6 7 6 2 4 12 8 7 9 3 3 4 8 11 13 14 17 20 28 33 31 26 23 25 21 16 13 7 3 4 8 13 19 27 34 42 48 55
2 17 14 11 16 8 9 6 6 5 6 4 6 5 3 5 5 6 3 2 7 13 13 9 9 9 9 7 9 11 16 17 18 22 29 30 28 22 19 16 21 17 7 2 7 10 16 22 27 33 39 46 55 63
13 13 10 11 8 8 7 5 8 6 4 6 6 1 3 5 7 3 3 9 7 10 13 11 9 7 8 13 12 9 13 13 12 16 23 28 31 31 35 43 39 27 13 8 13 18 22 27 33 39 45 50 57 65
10 9 12 14 7 7 5 5 6 7 8 6 3 3 4 8 4 4 4 9 10 10 10 10 9 8 8 7 7 10 11 12 12 16 23 27 29 33 40 45 45 40 23 8 18 28 37 41 47 54 63 67 69 75
8 15 9 17 10 19 6 6 9 9 5 7 1 9 6 5 4 2 4 10 9 7 7 7 7 5 5 5 5 5 7 7 7 10 14 22 23 26 31 35 35 36 40 25 20 28 40 51 60 67 71 80 87 89
9 22 8 8 7 10 9 9 6 8 11 6 4 5 5 8 7 8 7 9 10 7 5 6 7 9 8 7 6 6 8 8 8 9 12 17 17 26 29 31 31 35 40 48 48 47 54 64 73 80 83 84 84 84
11 21 5 6 8 9 11 13 12 19 21 19 22 34 34 29 27 20 14 10 9 10 11 10 12 12 14 13 13 11 11 10 9 10 11 17 20 21 24 25 27 31 33 36 45 52 57 64 69 73 76 77 76 75
16 11 7 10 6 7 17 28 34 36 38 42 39 32 20 14 24 44 35 23 16 14 12 13 13 13 12 12 13 14 16 15 15 15 16 17 17 17 21 23 26 28 32 33 35 41 49 55 58 60 63 64 63 63
14 12 4 6 2 4 5 6 8 9 9 10 12 9 8 9 10 18 39 25 15 15 16 15 16 18 19 19 17 17 16 15 13 16 15 15 15 16 18 20 23 25 28 32 37 39 39 44 49 48 49 51 50 49
9 14 11 6 3 4 9 6 6 5 11 8 12 11 11 8 8 19 23 27 22 17 14 14 14 15 15 15 15 14 12 10 9 13 15 13 13 14 15 17 20 21 23 26 30 33 36 37 40 42 41 40 39 38
Wind_Direction_850mb
324 326 328 320 317 317 315 314 312 309 306 303 303 296 263 262 253 218 223 220 213 203 203 207 216 195 176 184 157 189 101 254 56 179 202 185 196 205 178 216 181 176 179 198 209 227 231 205 309 200 218 285 293 294
322 326 327 321 319 319 319 316 315 310 306 298 294 285 286 279 232 205 208 223 205 208 230 221 228 235 230 232 200 182 183 166 179 133 192 132 112 43 194 227 214 224 198 208 213 227 175 224 213 243 251 261 268 270
323 325 327 323 321 322 320 320 318 321 303 291 288 292 288 273 228 201 201 202 198 193 226 233 225 221 222 223 221 204 226 207 205 209 161 203 193 179 202 223 232 246 228 230 251 243 220 225 237 235 239 256 264 263
323 325 327 322 323 323 323 324 335 327 320 310 301 298 292 295 183 192 196 182 189 176 193 244 229 227 229 229 229 221 231 227 233 233 215 226 220 198 230 228 219 224 204 222 233 232 245 243 236 236 249 252 256 256
323 325 327 323 324 326 326 329 333 322 317 315 310 304 275 214 188 193 195 191 200 186 173 193 198 217 217 224 223 229 228 222 224 223 221 238 240 225 227 228 234 210 220 214 218 221 221 237 235 239 239 234 239 245
322 326 326 324 326 327 329 333 325 318 316 320 321 311 266 203 183 188 119 195 203 197 153 90 219 205 212 216 217 226 233 221 216 220 228 228 259 203 217 217 232 227 226 226 225 229 230 238 245 254 229 233 229 224
323 326 326 324 326 329 332 339 327 312 316 328 328 330 227 180 175 170 182 206 190 191 162 40 318 194 205 203 215 222 225 217 221 229 235 223 248 216 177 214 208 213 219 226 230 217 212 238 260 262 244 230 221 224
324 324 325 324 326 330 335 345 327 323 323 332 349 63 115 146 156 155 157 178 175 172 152 118 255 6 178 187 194 197 197 206 217 210 248 210 287 6 264 223 231 218 214 206 196 225 230 225 221 266 238 218 222 228
323 322 325 324 325 330 337 354 334 329 326 301 143 84 91 101 88 128 145 151 161 163 157 152 148 212 180 190 177 178 167 183 182 201 220 152 315 230 182 199 202 239 268 246 255 259 254 235 233 230 235 258 249 250
322 322 322 322 323 328 334 347 350 317 303 266 241 299 52 106 125 144 144 147 133 173 132 170 167 169 162 156 223 106 185 201 179 233 134 176 245 197 52 79 133 211 252 271 261 265 263 251 261 264 250 243 238 237
319 320 320 321 322 324 331 337 347 328 305 243 198 131 151 150 147 157 97 107 160 191 196 206 189 147 191 148 179 205 192 174 147 244 159 231 264 104 3 328 305 290 283 268 260 254 260 266 278 280 271 264 255 250
314 317 319 318 319 321 325 331 338 346 302 257 197 143 162 174 164 132 173 353 169 216 194 172 204 166 168 165 143 190 181 94 234 162 108 235 229 20 356 351 346 325 303 283 271 271 265 263 258 259 260 263 267 270
310 311 317 317 313 317 318 328 326 324 284 231 204 165 185 191 168 171 186 233 220 183 189 173 156 143 149 190 179 200 148 207 100 170 217 230 338 349 351 343 332 332 315 300 288 276 269 267 260 261 261 261 269 266
303 306 309 315 307 312 312 322 322 320 272 251 210 161 175 193 231 181 181 173 151 163 138 121 108 143 159 141 164 181 158 78 84 223 233 346 343 344 342 339 333 321 314 311 303 291 279 273 267 258 258 260 260 259
302 303 305 305 310 308 311 317 311 314 242 242 224 207 198 151 71 110 114 123 128 140 136 125 112 113 119 145 154 107 63 240 206 223 136 338 331 326 318 322 321 322 321 312 303 292 281 276 272 266 258 257 255 256
301 300 303 307 305 309 312 309 313 276 229 177 96 88 48 62 304 120 128 111 131 147 132 112 137 129 233 140 106 210 148 219 224 155 287 320 321 322 317 319 322 323 315 309 304 297 289 280 275 271 266 257 250 247
303 298 306 303 308 306 303 307 281 232 206 128 168 114 118 77 133 125 136 159 148 151 151 131 132 199 112 91 239 189 225 12 351 322 324 325 325 322 322 319 316 316 312 306 299 294 290 282 274 269 265 256 250 246
294 300 307 310 313 309 300 237 239 215 71 100 124 114 91 84 105 114 114 125 131 116 117 142 123 130 192 189 200 85 5 318 316 311 321 331 327 322 319 316 313 312 308 304 299 296 291 281 269 269 261 250 244 237
299 302 302 300 303 300 278 247 227 138 113 99 109 108 105 101 83 96 104 106 102 104 105 54 113 185 174 60 161 318 330 341 315 322 329 341 336 327 325 320 314 312 306 303 299 294 287 273 268 259 247 240 227 224
290 293 297 292 257 243 256 264 296 113 140 138 117 102 92 93 100 81 91 97 91 61 49 49 103 130 23 323 308 302 318 324 326 328 335 339 344 337 334 327 320 317 311 309 302 293 283 265 258 238 226 224 219 214
305 300 296 250 222 220 271 281 57 89 121 83 125 81 84 90 62 49 46 44 61 38 74 52 87 347 309 303 301 313 322 319 328 317 318 322 340 336 336 336 328 318 315 317 315 294 265 243 203 210 213 212 210 208
297 278 275 203 215 208 164 59 119 105 81 119 113 93 81 76 53 44 62 53 60 39 19 12 6 6 346 298 308 326 335 335 335 332 336 330 328 336 341 338 338 332 323 323 318 303 274 221 194 197 195 191 189 186
298 251 202 191 185 112 54 99 112 62 109 139 103 85 51 76 74 80 76 62 84 21 353 347 344 321 319 357 3 345 340 336 342 340 341 338 329 334 341 341 333 334 328 323 308 287 247 205 195 187 176 172 171 168
343 16 35 34 14 58 357 18 55 74 95 66 73 100 87 102 118 53 84 327 59 12 6 4 358 292 278 328 358 358 1 351 350 347 347 350 352 353 337 347 350 340 338 350 3 229 197 184 178 172 164 161 161 159
133 14 18 8 16 1 26 11 14 57 89 74 104 101 131 150 88 62 65 319 7 22 19 14 351 9 12 359 357 352 352 349 349 357 4 7 10 14 29 26 24 16 13 138 149 170 174 175 171 167 162 160 155 153
67 11 32 354 2 19 354 9 13 24 96 79 60 83 89 86 68 55 269 345 354 1 4 5 5 5 356 353 354 3 5 4 353 5 19 26 25 21 27 34 36 42 50 100 138 156 159 161 161 157 151 153 154 148
53 355 354 20 346 336 16 18 13 36 54 63 22 51 74 73 81 271 326 345 351 348 354 355 349 345 342 351 1 8 31 46 51 45 42 38 32 28 34 36 33 35 37 93 145 151 147 150 151 150 145 144 145 147
63 28 24 335 42 24 26 24 25 25 23 354 296 46 74 69 179 312 344 348 348 351 355 5 3 359 354 12 26 47 71 65 42 28 48 54 42 42 50 56 53 59 67 67 115 140 144 146 145 140 137 136 135 135
30 352 353 27 53 50 37 19 9 349 341 348 85 85 99 76 63 63 41 31 27 27 45 67 55 52 53 58 70 49 28 24 41 48 55 62 59 52 54 61 66 72 82 95 99 108 122 127 129 132 132 131 130 131
347 1 20 50 48 36 14 20 32 45 65 79 97 104 92 85 70 57 52 58 65 77 89 81 75 75 70 67 67 70 64 62 67 60 60 66 61 57 57 60 71 78 85 97 108 114 119 123 125 125 126 126 127 128
346 356 62 48 72 35 70 83 81 79 81 85 95 94 102 110 64 41 41 46 63 76 86 86 85 76 70 73 70 71 78 85 85 78 78 76 78 76 78 80 83 88 94 101 108 112 116 119 120 121 123 123 124 126
15 29 91 95 102 55 62 48 58 66 54 55 46 59 77 77 64 33 22 35 61 77 77 84 92 83 72 67 76 83 89 89 88 84 80 82 86 87 87 92 97 101 106 111 113 114 118 119 120 121 120 121 123 126
33 39 49 83 83 57 22 34 61 84 54 53 43 44 51 68 80 20 17 26 43 56 78 92 89 78 67 67 77 81 88 93 92 95 85 92 99 99 98 101 105 108 109 112 115 117 118 120 121 122 124 127 128 127